When you browse on this site, cookies collect data to enhance your experience and personalize the content and advertising you see.
Visit our Privacy Policy to learn more. By continuing to use the site, you agree to this use of cookies and data.
  • In France
  • List of Countries
  • For 7 days
  • Water Temperature
  • Satellite Maps
  • Weather Map
  • Weather Widgets
  • user-avatar
    Login

    Hourly Weather Buenos Aires

    Today, 18 November, Sunday

    Time Temperature Precipitation Wind Pressure Humidity
    00:00 +17°C° 0 mm 5 mps 758 mmHg 70%
    01:00 +16°C° 0 mm 5 mps 758 mmHg 70%
    02:00 +15°C° 0 mm 5 mps 758 mmHg 71%
    03:00 +14°C° 0 mm 5 mps 759 mmHg 69%
    04:00 +14°C° 0 mm 4 mps 760 mmHg 67%
    05:00 +13°C° 0 mm 4 mps 760 mmHg 65%
    06:00 +15°C° 0 mm 5 mps 761 mmHg 59%
    07:00 +17°C° 0 mm 5 mps 761 mmHg 52%
    08:00 +19°C° 0 mm 6 mps 761 mmHg 45%
    09:00 +21°C° 0 mm 5 mps 762 mmHg 42%
    10:00 +22°C° 0 mm 5 mps 762 mmHg 39%
    11:00 +23°C° 0 mm 5 mps 762 mmHg 36%
    12:00 +23°C° 0 mm 4 mps 762 mmHg 36%
    13:00 +25°C° 0 mm 4 mps 762 mmHg 37%
    14:00 +25°C° 0 mm 3 mps 761 mmHg 37%
    15:00 +25°C° 0 mm 3 mps 761 mmHg 40%
    16:00 +25°C° 0 mm 2 mps 761 mmHg 43%
    17:00 +24°C° 0 mm 2 mps 761 mmHg 47%
    18:00 +23°C° 0 mm 1 mps 761 mmHg 48%
    19:00 +21°C° 0 mm 1 mps 762 mmHg 49%
    20:00 +20°C° 0 mm 1 mps 762 mmHg 51%
    21:00 +18°C° 0 mm 2 mps 762 mmHg 51%
    22:00 +18°C° 0 mm 2 mps 763 mmHg 52%
    23:00 +18°C° 0 mm 3 mps 763 mmHg 52%

    Tomorrow, 19 November, Monday

    Time Temperature Precipitation Wind Pressure Humidity
    00:00 +17°C° 0 mm 3 mps 763 mmHg 53%
    01:00 +17°C° 0 mm 3 mps 762 mmHg 54%
    02:00 +17°C° 0 mm 4 mps 762 mmHg 56%
    03:00 +15°C° 0 mm 4 mps 762 mmHg 58%
    04:00 +15°C° 0 mm 4 mps 762 mmHg 60%
    05:00 +15°C° 0 mm 4 mps 762 mmHg 61%
    06:00 +16°C° 0 mm 5 mps 762 mmHg 58%
    07:00 +19°C° 0 mm 5 mps 762 mmHg 55%
    08:00 +21°C° 0 mm 5 mps 762 mmHg 51%
    09:00 +23°C° 0 mm 5 mps 762 mmHg 48%
    10:00 +25°C° 0 mm 5 mps 762 mmHg 44%
    11:00 +27°C° 0 mm 5 mps 761 mmHg 40%
    12:00 +28°C° 0 mm 4 mps 761 mmHg 39%
    13:00 +28°C° 0 mm 4 mps 760 mmHg 38%
    14:00 +29°C° 0 mm 4 mps 760 mmHg 36%
    15:00 +28°C° 0 mm 4 mps 759 mmHg 40%
    16:00 +28°C° 0 mm 4 mps 759 mmHg 43%
    17:00 +27°C° 0 mm 4 mps 759 mmHg 47%
    18:00 +26°C° 0 mm 4 mps 759 mmHg 50%
    19:00 +23°C° 0 mm 4 mps 759 mmHg 53%
    20:00 +22°C° 0 mm 4 mps 760 mmHg 56%
    21:00 +21°C° 0 mm 4 mps 760 mmHg 58%
    22:00 +21°C° 0 mm 4 mps 760 mmHg 60%
    23:00 +20°C° 0 mm 4 mps 761 mmHg 63%

    Day after tomorrow, 20 November, Tuesday

    Time Temperature Precipitation Wind Pressure Humidity
    00:00 +20°C° 0 mm 4 mps 761 mmHg 64%
    01:00 +19°C° 0 mm 4 mps 760 mmHg 66%
    02:00 +18°C° 0 mm 4 mps 760 mmHg 68%
    03:00 +18°C° 0 mm 4 mps 761 mmHg 69%
    04:00 +18°C° 0 mm 4 mps 761 mmHg 71%
    05:00 +17°C° 0 mm 4 mps 761 mmHg 73%
    06:00 +19°C° 0 mm 4 mps 761 mmHg 67%
    07:00 +21°C° 0 mm 4 mps 761 mmHg 61%
    08:00 +23°C° 0 mm 4 mps 761 mmHg 55%
    09:00 +25°C° 0 mm 4 mps 761 mmHg 51%
    10:00 +27°C° 0 mm 4 mps 761 mmHg 46%
    11:00 +29°C° 0 mm 4 mps 761 mmHg 41%
    12:00 +30°C° 0 mm 4 mps 760 mmHg 40%
    13:00 +30°C° 0 mm 4 mps 759 mmHg 38%
    14:00 +32°C° 0 mm 4 mps 759 mmHg 37%
    15:00 +30°C° 0 mm 4 mps 758 mmHg 41%
    16:00 +30°C° 0 mm 4 mps 758 mmHg 45%
    17:00 +29°C° 0 mm 4 mps 758 mmHg 49%
    18:00 +28°C° 0 mm 4 mps 758 mmHg 53%
    19:00 +26°C° 0 mm 4 mps 758 mmHg 57%
    20:00 +25°C° 0 mm 4 mps 758 mmHg 60%
    21:00 +23°C° 0 mm 4 mps 759 mmHg 63%
    22:00 +22°C° 0 mm 4 mps 759 mmHg 66%
    23:00 +22°C° 0 mm 5 mps 759 mmHg 68%

    21 November, Wednesday

    Time Temperature Precipitation Wind Pressure Humidity
    00:00 +21°C° 0 mm 4 mps 759 mmHg 70%
    01:00 +21°C° 0 mm 4 mps 758 mmHg 71%
    02:00 +20°C° 0 mm 4 mps 758 mmHg 73%
    03:00 +20°C° 0 mm 4 mps 758 mmHg 74%
    04:00 +20°C° 0 mm 4 mps 758 mmHg 75%
    05:00 +19°C° 0 mm 4 mps 758 mmHg 76%
    06:00 +21°C° 0 mm 4 mps 758 mmHg 72%
    07:00 +23°C° 0 mm 5 mps 758 mmHg 67%
    08:00 +25°C° 0 mm 5 mps 758 mmHg 62%
    09:00 +27°C° 0 mm 4 mps 758 mmHg 57%
    10:00 +29°C° 0 mm 4 mps 757 mmHg 52%
    11:00 +32°C° 0 mm 4 mps 757 mmHg 46%
    12:00 +33°C° 0 mm 4 mps 756 mmHg 44%
    13:00 +33°C° 0 mm 4 mps 755 mmHg 41%
    14:00 +34°C° 0 mm 4 mps 755 mmHg 39%
    15:00 +34°C° 0 mm 4 mps 754 mmHg 42%
    16:00 +33°C° 0 mm 4 mps 754 mmHg 46%
    17:00 +33°C° 0 mm 4 mps 753 mmHg 49%
    18:00 +30°C° 0 mm 4 mps 754 mmHg 53%
    19:00 +29°C° 0 mm 4 mps 754 mmHg 57%
    20:00 +27°C° 0 mm 4 mps 754 mmHg 61%
    21:00 +27°C° 0 mm 4 mps 754 mmHg 63%
    22:00 +27°C° 0 mm 4 mps 754 mmHg 65%
    23:00 +26°C° 0 mm 4 mps 754 mmHg 67%

    22 November, Thursday

    Time Temperature Precipitation Wind Pressure Humidity
    00:00 +26°C° 0 mm 4 mps 754 mmHg 67%
    01:00 +26°C° 0 mm 5 mps 753 mmHg 68%
    02:00 +26°C° 0 mm 5 mps 752 mmHg 68%
    03:00 +25°C° 0.8 mm 5 mps 754 mmHg 74%
    04:00 +23°C° 0.8 mm 6 mps 755 mmHg 80%
    05:00 +22°C° 0.8 mm 6 mps 756 mmHg 85%
    06:00 +21°C° 0.1 mm 6 mps 757 mmHg 81%
    07:00 +21°C° 0.1 mm 7 mps 758 mmHg 77%
    08:00 +20°C° 0.1 mm 7 mps 759 mmHg 74%
    09:00 +20°C° 0 mm 7 mps 759 mmHg 71%
    10:00 +21°C° 0 mm 7 mps 760 mmHg 69%
    11:00 +21°C° 0 mm 7 mps 760 mmHg 67%
    12:00 +21°C° 0 mm 7 mps 760 mmHg 67%
    13:00 +20°C° 0 mm 7 mps 760 mmHg 67%
    14:00 +20°C° 0 mm 7 mps 760 mmHg 67%
    15:00 +20°C° 0 mm 7 mps 761 mmHg 67%
    16:00 +19°C° 0 mm 6 mps 761 mmHg 67%
    17:00 +19°C° 0 mm 6 mps 762 mmHg 67%
    18:00 +17°C° 0 mm 6 mps 762 mmHg 67%
    19:00 +17°C° 0 mm 6 mps 762 mmHg 67%
    20:00 +16°C° 0 mm 7 mps 763 mmHg 67%
    21:00 +15°C° 0 mm 7 mps 763 mmHg 66%
    22:00 +14°C° 0 mm 6 mps 763 mmHg 66%
    23:00 +13°C° 0 mm 6 mps 763 mmHg 65%

    23 November, Friday

    Time Temperature Precipitation Wind Pressure Humidity
    00:00 +13°C° 0 mm 6 mps 763 mmHg 68%
    01:00 +11°C° 0 mm 6 mps 763 mmHg 71%
    02:00 +12°C° 0 mm 5 mps 763 mmHg 74%
    03:00 +10°C° 0 mm 5 mps 763 mmHg 76%
    04:00 +10°C° 0 mm 5 mps 763 mmHg 78%
    05:00 +10°C° 0 mm 5 mps 763 mmHg 80%
    06:00 +13°C° 0 mm 5 mps 763 mmHg 76%
    07:00 +15°C° 0 mm 5 mps 763 mmHg 71%
    08:00 +17°C° 0 mm 5 mps 763 mmHg 66%
    09:00 +19°C° 0 mm 5 mps 763 mmHg 61%
    10:00 +21°C° 0 mm 5 mps 763 mmHg 56%
    11:00 +22°C° 0 mm 5 mps 762 mmHg 51%
    12:00 +23°C° 0 mm 5 mps 762 mmHg 50%
    13:00 +23°C° 0 mm 6 mps 761 mmHg 50%
    14:00 +23°C° 0 mm 6 mps 761 mmHg 49%
    15:00 +23°C° 0 mm 6 mps 761 mmHg 52%
    16:00 +22°C° 0 mm 7 mps 760 mmHg 55%
    17:00 +21°C° 0 mm 7 mps 760 mmHg 58%
    18:00 +20°C° 0 mm 7 mps 761 mmHg 62%
    19:00 +17°C° 0 mm 6 mps 761 mmHg 67%
    20:00 +16°C° 0 mm 6 mps 761 mmHg 71%
    21:00 +16°C° 0 mm 6 mps 762 mmHg 73%
    22:00 +15°C° 0 mm 5 mps 762 mmHg 76%
    23:00 +15°C° 0 mm 5 mps 762 mmHg 78%
    Show more